Fort Polk, LA

8:41 PM CST on December 09, 2019 (GMT -0600)
Fort Polk

Weather History for KAQV - August, 2019

Change the Weather History Date:

Thursday, August 22, 2019

  Actual Average (KPOE) Record (KPOE)
Temperature  
Mean Temperature 83 °F -  
Max Temperature 96 °F 89 °F 102 °F (2011)
Min Temperature 73 °F 71 °F 69 °F (1996)
Cooling Degree Days 18    
Growing Degree Days 33 (Base 50)    
Moisture  
Dew Point 72 °F    
Average Humidity 76    
Maximum Humidity 96    
Minimum Humidity 44    
Precipitation  
Precipitation 0.00 in - - ()
Sea Level Pressure  
Sea Level Pressure 29.95 in    
Wind  
Wind Speed 1 mph (South)    
Max Wind Speed 7 mph    
Max Gust Speed -    
Visibility 8 miles    
Events Rain    
Averages and records for this station are not official NWS values.
T = Trace of Precipitation, MM = Missing Value Source: NWS Daily Summary

Daily Weather History Graph

Daily Weather History Graph

Search for Another Location

Airport or City:

Astronomy

Aug. 22, 2019 Rise Set
Actual Time 6:42 AM CDT 7:48 PM CDT
Civil Twilight 6:17 AM CDT 8:13 PM CDT
Nautical Twilight 5:47 AM CDT 8:43 PM CDT
Astronomical Twilight 5:16 AM CDT 9:14 PM CDT
Moon No Moon Rise 12:54 PM CDT (8/22)
Length of Visible Light 13h 56m
Length of Day
13h 05m
Waning Gibbous, 59% of the Moon is Illuminated
Aug 22
Waning Gibbous
Aug 23
Last Quarter
Aug 30
New
Sep 5
First Quarter
Sep 13
Full

Hourly Weather History & Observations

Time (CDT) Temp. Heat Index Dew Point Humidity Pressure Visibility Wind Dir Wind Speed Gust Speed Precip Events Conditions
12:56 AM 75.0 °F - 73.0 °F 94% 29.96 in 6.0 mi Calm Calm - N/A   Clear
2:56 AM 75.0 °F - 73.0 °F 94% 29.96 in 6.0 mi South 3.5 mph - N/A   Clear
3:14 AM 75.0 °F - 73.0 °F 94% 29.97 in 5.0 mi Calm Calm - N/A   Partly Cloudy
3:56 AM 75.0 °F - 73.0 °F 94% 29.96 in 5.0 mi Calm Calm - N/A   Clear
4:56 AM 73.9 °F - 72.0 °F 93% 29.96 in 5.0 mi Calm Calm - N/A   Clear
5:56 AM 73.9 °F - 72.0 °F 93% 29.97 in 4.0 mi Calm Calm - N/A   Clear
6:56 AM 73.0 °F - 72.0 °F 96% 29.99 in 3.0 mi Calm Calm - N/A   Clear
7:31 AM 75.0 °F - 73.0 °F 94% 30.01 in 5.0 mi Calm Calm - N/A   Mostly Cloudy
7:47 AM 75.9 °F - 73.9 °F 94% 30.01 in 5.0 mi Calm Calm - N/A   Mostly Cloudy
7:56 AM 75.9 °F - 73.9 °F 94% 30.01 in 6.0 mi Calm Calm - N/A   Mostly Cloudy
8:48 AM 78.1 °F - 73.9 °F 87% 30.02 in 10.0 mi Calm Calm - N/A   Scattered Clouds
8:56 AM 79.0 °F - 75.0 °F 88% 30.01 in 9.0 mi Calm Calm - N/A   Scattered Clouds
10:56 AM 89.1 °F 95.0 °F 71.1 °F 55% 29.99 in 10.0 mi Variable 6.9 mph - N/A   Clear
11:56 AM 88.0 °F 92.1 °F 69.1 °F 53% 29.99 in 10.0 mi Calm Calm - N/A   Scattered Clouds
12:56 PM 88.0 °F 93.8 °F 71.1 °F 57% 29.97 in 10.0 mi Calm Calm - N/A   Mostly Cloudy
1:56 PM 89.1 °F 95.0 °F 71.1 °F 55% 29.94 in 10.0 mi Calm Calm - 0.00 in Rain Light Rain
2:56 PM 93.9 °F 100.3 °F 70.0 °F 46% 29.90 in 10.0 mi Variable 4.6 mph - 0.00 in   Scattered Clouds
3:56 PM 93.0 °F 97.9 °F 69.1 °F 45% 29.89 in 10.0 mi Calm Calm - N/A   Scattered Clouds
4:56 PM 93.0 °F 97.4 °F 68.0 °F 44% 29.88 in 10.0 mi South 3.5 mph - N/A   Clear
5:56 PM 91.9 °F 95.9 °F 68.0 °F 45% 29.87 in 10.0 mi SSW 3.5 mph - N/A   Partly Cloudy
6:56 PM 88.0 °F 93.8 °F 71.1 °F 57% 29.89 in 10.0 mi South 6.9 mph - N/A   Partly Cloudy
7:56 PM 84.9 °F 89.4 °F 70.0 °F 61% 29.90 in 8.0 mi South 3.5 mph - N/A   Clear
8:56 PM 82.0 °F 86.7 °F 72.0 °F 71% 29.92 in 10.0 mi Calm Calm - N/A   Clear
9:56 PM 77.0 °F - 73.0 °F 88% 29.94 in 10.0 mi Calm Calm - N/A   Clear
10:56 PM 75.0 °F - 73.0 °F 94% 29.95 in 10.0 mi South 3.5 mph - N/A   Clear
11:56 PM 75.0 °F - 73.0 °F 94% 29.96 in 10.0 mi South 3.5 mph - N/A   Clear